EW6089 Weather Reports


Display with metric or nautical units.
time (UTC)temp
F
wind
direction
speed
MPH
gust
MPH
rain 1hr
in
rain 24hr
in
rain mn
in
humidity
%
barometer
mb
20260504231017 79 113 1.0 3.0 0.00 0.00 0.00 39 1009.6
20260504230037 79 113 1.0 5.0 0.00 0.00 0.00 41 1009.6
20260504225017 79 158 1.0 5.0 0.00 0.00 0.00 40 1009.7
20260504224037 79 158 1.0 5.0 0.00 0.00 0.00 38 1009.8
20260504223037 79 225 1.0 4.0 0.00 0.00 0.00 39 1009.9
20260504222037 79 158 1.0 8.0 0.00 0.00 0.00 39 1010.1
20260504221017 79 158 1.0 5.0 0.00 0.00 0.00 38 1010.2
20260504220017 80 45 1.0 8.0 0.00 0.00 0.00 39 1010.3
20260504215037 80 158 1.0 4.0 0.00 0.00 0.00 37 1010.3
20260504214016 80 158 1.0 5.0 0.00 0.00 0.00 38 1010.4
20260504213037 80 0.0 3.0 0.00 0.00 0.00 39 1010.3
20260504212017 79 45 1.0 5.0 0.00 0.00 0.00 38 1010.4
20260504211017 79 158 1.0 3.0 0.00 0.00 0.00 40 1010.3
20260504210017 79 158 1.0 4.0 0.00 0.00 0.00 39 1010.4
20260504205017 78 0.0 2.0 0.00 0.00 0.00 40 1010.5
20260504204017 78 68 2.0 5.0 0.00 0.00 0.00 40 1010.6
20260504203017 77 158 1.0 5.0 0.00 0.00 0.00 41 1010.6
20260504202016 77 135 1.0 5.0 0.00 0.00 0.00 41 1010.6
20260504201057 76 0.0 4.0 0.00 0.00 0.00 42 1010.7
20260504200037 76 0.0 3.0 0.00 0.00 0.00 42 1010.7
20260504195017 76 45 1.0 4.0 0.00 0.00 0.00 42 1010.6
20260504194016 75 0.0 2.0 0.00 0.00 0.00 44 1010.7
20260504193017 75 135 1.0 5.0 0.00 0.00 0.00 45 1010.9
20260504192017 75 158 1.0 4.0 0.00 0.00 0.00 44 1010.9
20260504191016 74 158 1.0 4.0 0.00 0.00 0.00 45 1011.0
20260504190017 74 113 1.0 5.0 0.00 0.00 0.00 44 1011.0
20260504185016 74 158 1.0 4.0 0.00 0.00 0.00 46 1011.1
20260504184017 74 158 1.0 3.0 0.00 0.00 0.00 46 1011.1
20260504183016 73 158 1.0 4.0 0.00 0.00 0.00 47 1011.1
20260504182016 73 135 1.0 4.0 0.00 0.00 0.00 48 1011.1
20260504181016 73 0.0 2.0 0.00 0.00 0.00 49 1011.1
20260504180017 72 158 1.0 3.0 0.00 0.00 0.00 48 1011.2
20260504175017 72 0.0 2.0 0.00 0.00 0.00 51 1011.1
20260504174016 71 158 1.0 3.0 0.00 0.00 0.00 50 1011.1
20260504173016 71 135 1.0 3.0 0.00 0.00 0.00 53 1011.1
20260504172017 70 0 1.0 3.0 0.00 0.00 0.00 52 1011.1
20260504171056 69 0.0 3.0 0.00 0.00 0.00 56 1011.1
20260504151017 56 0.0 0.0 0.00 0.00 0.00 83 1010.7
20260504141016 52 0.0 0.0 0.00 0.00 0.00 91 1010.4
20260504081016 56 0.0 0.0 0.00 0.00 0.00 83 1009.8
20260504050018 63 0.0 0.0 0.00 0.00 0.00 70 1009.8
20260504045017 64 0.0 0.0 0.00 0.00 0.00 71 1009.8
20260504044017 64 0.0 0.0 0.00 0.00 0.00 69 1009.7
20260504043017 65 0.0 0.0 0.00 0.00 0.00 69 1009.7
20260504042017 65 0.0 0.0 0.00 0.00 0.00 71 1009.7
20260504041017 66 0.0 0.0 0.00 0.00 0.00 69 1009.6
20260504040017 67 0.0 0.0 0.00 0.00 0.00 67 1009.5
20260504035017 68 0.0 0.0 0.00 0.00 0.00 67 1009.5
20260504034017 68 0.0 0.0 0.00 0.00 0.00 65 1009.4
20260504033017 69 0.0 0.0 0.00 0.00 0.00 65 1009.3
20260504032017 70 0.0 0.0 0.00 0.00 0.00 62 1009.2
20260504031017 71 0.0 1.0 0.00 0.00 0.00 59 1009.2
20260504030017 72 0.0 1.0 0.00 0.00 0.00 57 1009.2
20260504025017 73 0.0 2.0 0.00 0.00 0.00 57 1009.2
20260504024017 74 158 1.0 3.0 0.00 0.00 0.00 55 1009.2
20260504023017 75 158 1.0 3.0 0.00 0.00 0.00 53 1009.1
20260504022057 76 158 1.0 3.0 0.00 0.00 0.00 52 1009.2
20260504021017 76 158 1.0 3.0 0.00 0.00 0.00 50 1009.2
20260504020017 77 158 1.0 3.0 0.00 0.00 0.00 50 1009.2
20260504015017 78 158 1.0 3.0 0.00 0.00 0.00 47 1009.2
20260504014017 79 0.0 3.0 0.00 0.00 0.00 46 1009.4
20260504013017 79 158 1.0 3.0 0.00 0.00 0.00 44 1009.4
20260504012017 79 158 1.0 4.0 0.00 0.00 0.00 43 1009.4
20260504011017 79 0.0 3.0 0.00 0.00 0.00 46 1009.6
20260504010017 79 0.0 3.0 0.00 0.00 0.00 45 1009.6
20260504005017 79 158 1.0 4.0 0.00 0.00 0.00 44 1009.7
20260504004017 80 158 1.0 3.0 0.00 0.00 0.00 45 1009.8
20260504003017 80 0.0 2.0 0.00 0.00 0.00 45 1009.8
20260504002017 80 158 1.0 3.0 0.00 0.00 0.00 45 1009.9
20260504001017 80 0.0 5.0 0.00 0.00 0.00 43 1010.0
20260504000017 80 0.0 2.0 0.00 0.00 0.00 45 1010.1
20260503235017 80 158 1.0 4.0 0.00 0.00 0.00 46 1010.2
20260503234017 80 158 1.0 4.0 0.00 0.00 0.00 45 1010.3
20260503233018 80 0.0 3.0 0.00 0.00 0.00 44 1010.4
20260503232016 80 225 1.0 4.0 0.00 0.00 0.00 43 1010.5